Regional Weather Roundup
Issued by NWS

Home | Current Version | Previous Version | Graphics & Text | Print | Product List | Glossary On
Versions: 1 2 3 4 5 6 7 8 9 10 11 12 13 14 15 16 17 18 19 20 21 22 23 24 25 26 27 28 29 30 31 32 33 34 35 36 37 38 39 40 41 42 43 44 45 46 47 48 49 50
000
ASUS45 KABQ 090210
RWRNM
NEW MEXICO REGIONAL WEATHER ROUNDUP
NATIONAL WEATHER SERVICE ALBUQUERQUE NM
700 PM MST MON FEB 08 2016

NOTE: "FAIR" MEANS FEW OR NO CLOUDS BELOW 12,000 FEET AGL WITH NO
       SIGNIFICANT WEATHER OR OBSTRUCTIONS TO VISION.

      THIS PRODUCT IS RELEASED AS TWO VERSIONS.  ONE VERSION NEAR
      THE TOP OF THE HOUR CONTAINING PRELIMINARY DATA FROM ALBUQUERQUE
      AND OTHER STATIONS.  A FINAL VERSION WITH ADDITIONAL DATA IS
      ISSUED ABOUT 10 MINUTES AFTER THE HOUR.

NMZ501-503-504-510>518-090300-
NORTHWEST PLATEAU/NORTHCENTRAL MOUNTAINS

CITY           SKY/WX    TMP DP  RH WIND       PRES   REMARKS
FARMINGTON     CLOUDY    44  24  45 W3        30.38R
LOS ALAMOS     CLOUDY    44  16  32 CALM      30.40R
SANTA FE       CLOUDY    42  19  39 W6        30.36R
TAOS           CLOUDY    34  19  55 N8        30.40R WCI  27
ANGEL FIRE     FAIR      28  18  66 CALM      30.42R

$$
NMZ402-403-502-505>509-090300-
WESTCENTRAL MOUNTAINS/SOUTHWEST MOUNTAINS

CITY           SKY/WX    TMP DP  RH WIND       PRES   REMARKS
GALLUP         CLEAR     39  22  50 E5        30.44R
GRANTS         CLEAR     33  16  48 NW17      30.44R WCI  22
SILVER CITY      N/A     46  16  29 E3        30.35R

$$
NMZ407-409-411-412-090300-
SOUTHERN DESERTS

CITY           SKY/WX    TMP DP  RH WIND       PRES   REMARKS
LORDSBURG      FAIR      48  19  32 SE9       30.29R
DEMING         CLEAR     53  18  25 SW3       30.30S
LAS CRUCES     CLEAR     49  17  28 S6        30.32S
HOLLOMAN AFB   CLEAR     48  16  28 NE3       30.31R
ALAMOGORDO     CLEAR     46  16  29 NE3       30.32R
T OR C         CLEAR     53  13  20 CALM      30.31R

$$
NMZ519>523-090300-
CENTRAL VALLEYS/CENTRAL HIGHLANDS

CITY           SKY/WX    TMP DP  RH WIND       PRES   REMARKS
ALBUQUERQUE    PTCLDY    50  21  32 N8        30.35R
DOUBLE EAGLE   CLEAR     45  21  39 NW15      30.36R
MORIARTY ARPT  FAIR      33  17  51 E7        30.37R WCI  27
CLINES CORNERS CLOUDY    36  17  46 E6        30.36R WCI  31
BELEN          FAIR      47  17  30 N10       30.36R
SOCORRO        FAIR      49  15  25 NW6       30.33R

$$
NMZ524>526-539-540-090300-
SOUTHCENTRAL MOUNTAINS

CITY           SKY/WX    TMP DP  RH WIND       PRES   REMARKS
RUIDOSO          N/A     39  10  30 NW3       30.38S

$$
NMZ527>531-090300-
NORTHEAST HIGHLANDS/NORTHEAST PLAINS

CITY           SKY/WX    TMP DP  RH WIND       PRES   REMARKS
LAS VEGAS      CLOUDY    32  18  56 S13       30.38R WCI  22
RATON          CLEAR     37  18  46 SW8       30.37R WCI  31
CLAYTON        CLEAR     40  20  44 NW10      30.36S WCI  33

$$
NMZ532>537-090300-
EASTCENTRAL PLAINS

CITY           SKY/WX    TMP DP  RH WIND       PRES   REMARKS
TUCUMCARI      CLEAR     34  14  43 NE3       30.38R
CANNON AFB     CLOUDY    41  15  34 NW6       30.38R
CLOVIS AIRPORT CLEAR     36  14  41 N8        30.39S WCI  29

$$
NMZ028-029-538-090300-
SOUTHEAST PLAINS

CITY           SKY/WX    TMP DP  RH WIND       PRES   REMARKS
ROSWELL        CLEAR     37  14  38 S8        30.36R WCI  31
ARTESIA        CLEAR     39  14  35 S8        30.36S WCI  34
CARLSBAD       CLEAR     37  14  38 S6        30.35S WCI  32
HOBBS          CLEAR     39  10  30 E5        30.38R


$$




USA.gov is the U.S. government's official web portal to all federal, state and local government web resources and services.